Location: Bilbao
(43.2500°N, 2.9667°W)
Time: 01:13:34
(UTC+02:00)

ISS - Visible Passes

Search period start: 28 October 2021 00:00
Search period end: 06 November 2021 23:00
Orbit: 417 x 423 km, 51.6° (Epoch: 27 October)

Date Brightness Start Highest point End Pass type
(mag) Time Alt. Az. Time Alt. Az. Time Alt. Az.
28 Oct -2.7 07:08:40 30° NNW 07:08:50 30° NNW 07:11:52 10° NE visible
29 Oct -1.3 06:23:26 19° NE 06:23:26 19° NE 06:24:40 10° NE visible
29 Oct -1.9 07:56:25 10° NW 07:58:55 19° N 08:01:28 10° NE visible
30 Oct -2.0 07:11:08 21° NNW 07:11:26 21° N 07:14:06 10° NE visible
31 Oct -1.1 05:25:49 16° NNE 05:25:49 16° NNE 05:26:49 10° NE visible
31 Oct -1.8 06:59:01 10° NW 07:01:36 20° N 07:04:11 10° NE visible
01 Nov -1.8 06:13:27 18° NNW 06:14:06 19° N 06:16:37 10° NE visible
02 Nov -1.0 05:28:06 15° NNE 05:28:06 15° NNE 05:29:09 10° NE visible
02 Nov -2.1 07:01:18 10° NW 07:04:12 26° NNE 07:07:06 10° ENE visible
03 Nov -1.9 06:15:44 19° NNW 06:16:44 22° N 06:19:27 10° ENE visible
04 Nov -1.2 05:30:24 17° NE 05:30:24 17° NE 05:31:48 10° NE visible
04 Nov -3.0 07:03:23 10° NW 07:06:38 45° NNE 07:09:53 10° E visible
05 Nov -2.4 06:18:04 25° NNW 06:19:13 33° NNE 06:22:19 10° E visible
06 Nov -1.5 05:32:48 22° NE 05:32:48 22° NE 05:34:40 10° ENE visible
06 Nov -3.8 07:05:47 12° WNW 07:08:51 75° SW 07:12:12 10° SE visible
